{"data":{"norad_id":69170,"epoch":"2026-09-19T19:12:52.291872Z","epoch_age_seconds":87341,"freshness":"FRESH","line1":"1 69170U 26111Y   26262.80060523  .00024117  00000+0  72237-3 0  9994","line2":"2 69170  53.1592  68.8222 0001106  95.5766 264.5363 15.34410265 18799","mean_motion":15.34410265,"eccentricity":0.0001106,"inclination_deg":53.1592,"raan_deg":68.8222,"arg_perigee_deg":95.5766,"mean_anomaly_deg":264.5363,"bstar":0.00072237,"rev_number":1879,"period_min":93.847130252351,"perigee_km":461.91613707773,"apogee_km":463.42932419015,"semimajor_km":6840.8097306339,"source":"CELESTRAK","updated_at":"2026-09-20T09:00:44.093972Z"}}